[[{"header":{"parameterUnit":"m.s-1","parameterCategory":2,"la1":30.2991,"la2":30.254,"lo1":-89.0895,"lo2":-89.0444,"dy":0.0017,"dx":0.0017,"nx":28,"ny":28,"refTime":"2024-10-05T09:00:00:Z","depth":"0","parameterNumber":2,"parameterNumberName":"U-component_of_CURRENTS"},"data":[0,0,0,0,0,0,0,0,0,0,0,0,0,0,0,0,0,0,0,0,0,0,0,0,0,0,0,0,0,0,0,0,0,0,0,0,0,0,0,0,0,0,0,0,0,0,0,0,0,0,0,0,0,0,0,0,0,0,0.2532,0.2532,0,0.2514,0.2514,0.2514,0.2484,0.2484,0.2484,0.2483,0.2458,0.2457,0.2457,0,0,0,0,0,0,0,0,0,0,0,0,0,0.2562,0.2561,0.2532,0.2532,0.2532,0.2514,0.2514,0.2513,0.2484,0.2484,0.2484,0.2483,0.2458,0.2458,0.2457,0,0,0,0,0,0,0,0,0,0,0,0,0,0.2545,0.2561,0.2532,0.2517,0.2516,0.2514,0.2514,0.2513,0.2484,0.2484,0.2483,0.2483,0.2458,0.2458,0.2457,0.2464,0,0,0.2455,0.2455,0,0,0,0,0,0,0,0,0.2546,0.2543,0.252,0.2518,0.2517,0.2503,0.2515,0.2497,0.2485,0.2494,0.2483,0.2483,0.2474,0.2472,0.2467,0.2463,0.2461,0.2455,0.2455,0.2455,0.2455,0,0,0,0,0,0,0,0.2547,0.2544,0.2523,0.252,0.2518,0.2518,0.2515,0.2511,0.2485,0.2493,0.2492,0.2493,0.2473,0.2467,0.2466,0.2461,0.2455,0.2455,0.2454,0.2454,0.2489,0.2491,0,0,0,0,0,0,0.2553,0.2545,0.2524,0.2523,0.2533,0.2518,0.2514,0.2506,0.2485,0.2483,0.2494,0.2492,0.2469,0.2467,0.2465,0.2491,0.2455,0.2454,0.2454,0.2488,0.249,0.2491,0,0,0,0,0,0,0.2553,0.2551,0.2524,0.2536,0.2533,0.2518,0.2509,0.2506,0.2504,0.2486,0.2483,0.2495,0.2468,0.2466,0.2471,0.2489,0.2454,0.2453,0.2487,0.2489,0.249,0.2531,0,0,0,0,0,0,0.2554,0.2551,0.255,0.2536,0.2532,0.2528,0.251,0.2506,0.2506,0.2504,0.2487,0.2483,0.2468,0.2472,0.2471,0.2488,0.2453,0.2485,0.2488,0.249,0.2528,0.2534,0.2539,0,0,0,0,0,0.2555,0.2552,0.2549,0.2547,0.253,0.2529,0.2527,0.2514,0.2507,0.2509,0.2502,0.2484,0.2486,0.2473,0.247,0.2488,0.2484,0.2487,0.249,0.2525,0.2533,0.2539,0,0,0,0,0,0,0.2562,0.2549,0.2545,0.2538,0.2538,0.2524,0.2525,0.252,0.2515,0.2514,0.2496,0.2493,0.2507,0.2495,0.248,0.2507,0.2484,0.2487,0.2512,0.2519,0.2524,0.2528,0.2453,0,0,0,0,0,0.2566,0.2559,0.2552,0.2548,0.2548,0.254,0.2539,0.2533,0.2527,0.2524,0.2514,0.2511,0.2518,0.2515,0.2516,0.2526,0.2533,0.2539,0.2544,0.2549,0.2552,0.2587,0.2596,0.25,0.25,0.25,0,0,0.2566,0.256,0.2555,0.255,0.2546,0.255,0.2537,0.2539,0.2545,0.2524,0.2528,0.253,0.2527,0.2541,0.2546,0.253,0.2581,0.2553,0.2556,0.2557,0.2591,0.26,0.2609,0.2502,0.2502,0.2502,0,0,0.2564,0.256,0.2554,0.2558,0.2561,0.2561,0.2565,0.256,0.2559,0.2569,0.2563,0.2578,0.2575,0.2581,0.2583,0.2621,0.2613,0.2622,0.2646,0.2681,0.2689,0.2696,0.2721,0.273,0.262,0.262,0.262,0,0.2567,0.2556,0.2555,0.2558,0.2562,0.2568,0.2571,0.2578,0.2577,0.2588,0.2576,0.2603,0.2597,0.2626,0.2637,0.2634,0.2648,0.2618,0.2688,0.2695,0.2701,0.2726,0.2735,0.2623,0.2622,0.2622,0.2622,0,0.2558,0.2559,0.2559,0.2563,0.2572,0.2577,0.259,0.2604,0.261,0.262,0.2653,0.2653,0.267,0.2674,0.2663,0.271,0.2705,0.2694,0.2669,0.2713,0.2736,0.2746,0.2626,0.2625,0.2624,0.2624,0,0,0.2531,0.2548,0.2547,0.2552,0.2575,0.2577,0.2606,0.263,0.2658,0.2669,0.2703,0.2719,0.273,0.2734,0.2732,0.2756,0.2813,0.2743,0.2744,0.2765,0.2889,0.285,0.2856,0.2815,0.2817,0.2819,0.2887,0,0.2521,0.2525,0.254,0.2552,0.2553,0.2584,0.2612,0.2644,0.2675,0.2714,0.2737,0.2768,0.2751,0.2765,0.279,0.2814,0.2839,0.2795,0.2845,0.2846,0.2804,0.2866,0.2759,0.2809,0.2896,0.2898,0.2899,0,0.2494,0.2504,0.2508,0.2544,0.2549,0.2564,0.2616,0.2646,0.2717,0.2749,0.2796,0.2816,0.2864,0.2837,0.2903,0.2878,0.2886,0.2896,0.2899,0.2854,0.2825,0.2778,0.2822,0.2744,0.2913,0.2912,0.2911,0,0.2451,0.2477,0.2479,0.2488,0.2534,0.2549,0.2581,0.265,0.2691,0.2775,0.2816,0.2878,0.2913,0.2942,0.2964,0.2941,0.3033,0.3003,0.2977,0.2974,0.2887,0.2874,0.2856,0.3047,0.3047,0.3046,0.3046,0,0.2417,0.2417,0.2458,0.2456,0.2479,0.2521,0.2563,0.2618,0.2705,0.2759,0.2825,0.2879,0.2942,0.2995,0.3,0.3027,0.3067,0.2997,0.2997,0.2898,0.2886,0.2816,0.2793,0.3049,0.3048,0.3048,0.3047,0,0.2356,0.2381,0.2387,0.2435,0.2452,0.2466,0.2547,0.2584,0.2677,0.2751,0.2779,0.2902,0.2979,0.3029,0.3095,0.3073,0.301,0.309,0.2969,0.2952,0.2831,0.2815,0.2705,0.2611,0.3073,0.3073,0.3073,0,0.2319,0.2317,0.2361,0.2369,0.2386,0.2423,0.2454,0.2557,0.2604,0.2753,0.2781,0.2898,0.2969,0.307,0.3069,0.3093,0.2995,0.2989,0.2918,0.2825,0.2807,0.2689,0.2608,0.2824,0.2822,0.282,0.2818,0,0.2258,0.2277,0.2287,0.231,0.2331,0.2361,0.2413,0.2452,0.2571,0.2645,0.2754,0.283,0.2949,0.295,0.2994,0.2986,0.2838,0.2949,0.2886,0.2644,0.2481,0.2389,0.2779,0.2801,0.2803,0.2804,0.2805,0.2806,0.2213,0.2208,0.223,0.2241,0.2264,0.2278,0.2281,0.2349,0.2417,0.2502,0.2642,0.2708,0.2799,0.2858,0.2834,0.2734,0.272,0.2641,0.2642,0.2539,0.2399,0.275,0.2747,0.2749,0.275,0.2751,0.2752,0,0.2149,0.2152,0.2161,0.2167,0.2155,0.2197,0.2233,0.2223,0.2255,0.2369,0.245,0.2516,0.2538,0.2585,0.2554,0.2442,0.2308,0.2372,0.2183,0.2128,0.2479,0.2418,0.2301,0.2301,0.2301,0.2301,0.2302,0.2302,0.2117,0.2095,0.2095,0.2049,0.2052,0.2009,0.2007,0.2013,0.2065,0.2103,0.214,0.222,0.2367,0.2407,0.2308,0.224,0.2036,0.195,0.1934,0.2201,0.2225,0.2248,0.2183,0.202,0.2019,0.1463,0.1459,0.1456]},{"header":{"parameterUnit":"m.s-1","parameterCategory":2,"la1":30.2991,"la2":30.254,"lo1":-89.0895,"lo2":-89.0444,"dy":0.0017,"dx":0.0017,"nx":28,"ny":28,"refTime":"2024-10-05T09:00:00:Z","depth":"0","parameterNumber":3,"parameterNumberName":"V-component_of_CURRENTS"},"data":[0,0,0,0,0,0,0,0,0,0,0,0,0,0,0,0,0,0,0,0,0,0,0,0,0,0,0,0,0,0,0,0,0,0,0,0,0,0,0,0,0,0,0,0,0,0,0,0,0,0,0,0,0,0,0,0,0,0,-0.0019,-0.0019,0,-0.0056,-0.0057,-0.0057,-0.0082,-0.0082,-0.0082,-0.0082,-0.0143,-0.0144,-0.0146,0,0,0,0,0,0,0,0,0,0,0,0,0,-0.0022,-0.0022,-0.0019,-0.0019,-0.0019,-0.0056,-0.0057,-0.0058,-0.0082,-0.0082,-0.0082,-0.0082,-0.0142,-0.0144,-0.0146,0,0,0,0,0,0,0,0,0,0,0,0,0,-0.0037,-0.0022,-0.0019,-0.0035,-0.0037,-0.0056,-0.0057,-0.0058,-0.0082,-0.0082,-0.0082,-0.0082,-0.0141,-0.0144,-0.0146,-0.0159,0,0,-0.0153,-0.0154,0,0,0,0,0,0,0,0,-0.0036,-0.0037,-0.0032,-0.0034,-0.0036,-0.0063,-0.008,-0.0092,-0.0082,-0.0066,-0.0082,-0.0082,-0.0117,-0.0122,-0.013,-0.0162,-0.0165,-0.0153,-0.0155,-0.0156,-0.0157,0,0,0,0,0,0,0,-0.0035,-0.0036,-0.0035,-0.0033,-0.0035,-0.0059,-0.0061,-0.0083,-0.0093,-0.0068,-0.0069,-0.0071,-0.0119,-0.0128,-0.0132,-0.0166,-0.0153,-0.0156,-0.0157,-0.0158,-0.0201,-0.0201,0,0,0,0,0,0,-0.0025,-0.0035,-0.0034,-0.0036,-0.0035,-0.0059,-0.0061,-0.0056,-0.0092,-0.0097,-0.0071,-0.0072,-0.0124,-0.0129,-0.0134,-0.0132,-0.0156,-0.0158,-0.0159,-0.0201,-0.0201,-0.0201,0,0,0,0,0,0,-0.0025,-0.0024,-0.0032,-0.0036,-0.0038,-0.0058,-0.0052,-0.0056,-0.0062,-0.0094,-0.01,-0.0072,-0.0124,-0.0131,-0.0145,-0.0136,-0.0159,-0.0161,-0.0202,-0.0201,-0.0201,-0.0142,0,0,0,0,0,0,-0.0025,-0.0024,-0.0019,-0.0035,-0.0038,-0.0034,-0.0052,-0.0057,-0.0063,-0.0064,-0.0097,-0.0103,-0.0125,-0.0141,-0.0147,-0.0139,-0.0163,-0.0202,-0.0202,-0.0201,-0.0144,-0.0139,-0.0135,0,0,0,0,0,-0.0024,-0.0013,-0.0018,-0.0019,-0.0029,-0.0034,-0.0037,-0.0053,-0.0062,-0.006,-0.0081,-0.0101,-0.0143,-0.0143,-0.015,-0.0142,-0.0202,-0.0202,-0.0201,-0.0146,-0.014,-0.0135,0,0,0,0,0,0,-0.0016,-0.0015,-0.0021,-0.0011,-0.0019,-0.0037,-0.0038,-0.0049,-0.0064,-0.0067,-0.0098,-0.0105,-0.0116,-0.0138,-0.0137,-0.0154,-0.0176,-0.0177,-0.0132,-0.0127,-0.0122,-0.0103,-0.0165,0,0,0,0,0,-0.001,0.0,-0.0008,-0.0001,-0.0002,-0.002,-0.0025,-0.0034,-0.0049,-0.0056,-0.0077,-0.0102,-0.012,-0.0129,-0.0151,-0.0159,-0.0181,-0.016,-0.0155,-0.0152,-0.0142,-0.0166,-0.0162,-0.0199,-0.0199,-0.0199,0,0,-0.0007,-0.0005,-0.0001,0.0001,-0.0007,0.0003,-0.0023,-0.0025,-0.0018,-0.006,-0.0061,-0.0089,-0.012,-0.0128,-0.0135,-0.0143,-0.0154,-0.0151,-0.0147,-0.0139,-0.0165,-0.0161,-0.0158,-0.0198,-0.0199,-0.0199,0,0,0.0012,0.0009,0.0028,0.0028,0.0025,0.0017,0.002,0.0006,-0.0,-0.0007,-0.0034,-0.0052,-0.0083,-0.0098,-0.0111,-0.0097,-0.0132,-0.0108,-0.0068,-0.0092,-0.0088,-0.0086,-0.011,-0.0111,-0.0103,-0.0103,-0.0103,0,0.0017,0.0042,0.003,0.0049,0.0056,0.0029,0.0051,0.004,0.0022,0.0024,0.0001,-0.0037,-0.0067,-0.0069,-0.0066,-0.0086,-0.0107,-0.0083,-0.0085,-0.0083,-0.0081,-0.0107,-0.0108,-0.01,-0.0101,-0.0101,-0.0101,0,0.0055,0.0073,0.0083,0.0103,0.0105,0.0118,0.0107,0.0104,0.0088,0.0079,0.0068,0.0023,0.0006,-0.0012,-0.0035,-0.0036,-0.0057,-0.0078,-0.0094,-0.0074,-0.0103,-0.0105,-0.0096,-0.0097,-0.0098,-0.0099,0,0,0.0078,0.0107,0.0111,0.0134,0.0138,0.0148,0.0156,0.0164,0.0183,0.0145,0.016,0.0116,0.0092,0.0075,0.0039,0.0015,0.0001,-0.0022,-0.0024,-0.0039,-0.0051,-0.0059,-0.0062,-0.0021,-0.0021,-0.0021,-0.0076,0,0.0115,0.0167,0.0168,0.0213,0.0241,0.0223,0.0238,0.0238,0.023,0.0235,0.0184,0.018,0.0126,0.0118,0.0086,0.0026,-0.0001,0.0018,-0.0075,-0.0077,-0.0081,-0.0064,-0.0028,-0.0073,-0.0078,-0.0078,-0.0079,0,0.016,0.0191,0.0244,0.0283,0.0293,0.031,0.0338,0.0352,0.0346,0.0338,0.0318,0.0278,0.0241,0.0186,0.0096,0.0111,0.0038,-0.0018,-0.0021,-0.0048,-0.0088,-0.0095,-0.0077,-0.0185,-0.0082,-0.0082,-0.0082,0,0.0199,0.0248,0.0295,0.0308,0.0341,0.0357,0.0374,0.0384,0.0416,0.0408,0.0421,0.0363,0.0341,0.0243,0.0125,0.0111,0.002,-0.0015,-0.0092,-0.0094,-0.0091,-0.0092,-0.018,-0.0081,-0.0081,-0.0081,-0.008,0,0.0248,0.0286,0.0317,0.0344,0.0405,0.0407,0.0469,0.0476,0.05,0.0549,0.0482,0.0499,0.0354,0.0281,0.0158,0.0035,0.0044,-0.0077,-0.0104,-0.007,-0.0068,-0.0186,-0.026,-0.0083,-0.0082,-0.0082,-0.0081,0,0.0289,0.0307,0.0366,0.0408,0.0427,0.0472,0.0538,0.0586,0.0594,0.0651,0.065,0.0606,0.0516,0.0362,0.021,0.0093,-0.0103,-0.0086,-0.0036,-0.0056,-0.0228,-0.03,-0.0436,-0.0503,-0.0175,-0.0176,-0.0176,0,0.0318,0.0352,0.0418,0.0459,0.0481,0.0546,0.0596,0.0631,0.069,0.0723,0.0758,0.0691,0.0669,0.0446,0.0227,0.0018,-0.0113,-0.0097,-0.012,-0.0224,-0.0325,-0.0386,-0.0438,-0.0097,-0.0097,-0.0097,-0.0097,0,0.0372,0.039,0.0438,0.0524,0.0583,0.0661,0.0734,0.0795,0.0838,0.0891,0.0946,0.0932,0.0725,0.0546,0.0252,0.0102,-0.0173,-0.0099,-0.0218,-0.0276,-0.0337,-0.0418,-0.0082,-0.0094,-0.0095,-0.0095,-0.0095,-0.0095,0.0411,0.0452,0.0511,0.0595,0.0666,0.0758,0.0832,0.0921,0.1026,0.1108,0.109,0.1104,0.0833,0.0455,0.0232,-0.0138,-0.0177,-0.0247,-0.0327,-0.0381,-0.044,-0.0098,-0.0135,-0.0135,-0.0135,-0.0136,-0.0136,0,0.0459,0.0503,0.058,0.0673,0.0755,0.0787,0.0913,0.0995,0.1128,0.1211,0.1266,0.1159,0.0834,0.0471,-0.0028,-0.0304,-0.0421,-0.0461,-0.0536,-0.0582,-0.0276,-0.0264,-0.0316,-0.0315,-0.0315,-0.0315,-0.0315,-0.0315,0.0483,0.0556,0.0592,0.0726,0.0796,0.0911,0.0986,0.1114,0.1209,0.1325,0.1351,0.1337,0.1079,0.0217,-0.0371,-0.0512,-0.0738,-0.0782,-0.0916,-0.0695,-0.0681,-0.0668,-0.0673,-0.0809,-0.081,-0.1168,-0.1172,-0.1175]}],[{"header":{"parameterUnit":"m.s-1","parameterCategory":2,"la1":30.2991,"la2":30.254,"lo1":-89.0895,"lo2":-89.0444,"dy":0.0017,"dx":0.0017,"nx":28,"ny":28,"refTime":"2024-10-05T09:00:00:Z","depth":"2","parameterNumber":2,"parameterNumberName":"U-component_of_CURRENTS"},"data":[0,0,0,0,0,0,0,0,0,0,0,0,0,0,0,0,0,0,0,0,0,0,0,0,0,0,0,0,0,0,0,0,0,0,0,0,0,0,0,0,0,0,0,0,0,0,0,0,0,0,0,0,0,0,0,0,0,0,0.238,0.238,0,0.2372,0.2372,0.2372,0.2357,0.2357,0.2357,0.2357,0.2348,0.2348,0.2348,0,0,0,0,0,0,0,0,0,0,0,0,0,0.2388,0.2388,0.238,0.238,0.238,0.2372,0.2372,0.2372,0.2357,0.2357,0.2357,0.2357,0.2348,0.2348,0.2348,0,0,0,0,0,0,0,0,0,0,0,0,0,0.2381,0.2388,0.238,0.2374,0.2373,0.2372,0.2372,0.2372,0.2357,0.2357,0.2357,0.2357,0.2348,0.2348,0.2348,0.2348,0,0,0.2347,0.2347,0,0,0,0,0,0,0,0,0.2381,0.238,0.2375,0.2374,0.2374,0.2368,0.2372,0.2364,0.2357,0.2361,0.2357,0.2357,0.2356,0.2355,0.2351,0.2347,0.2347,0.2347,0.2347,0.2346,0.2346,0,0,0,0,0,0,0,0.2382,0.2381,0.2375,0.2375,0.2374,0.2374,0.2372,0.237,0.2357,0.236,0.236,0.2363,0.2356,0.2351,0.235,0.2347,0.2347,0.2347,0.2346,0.2346,0.239,0.2391,0,0,0,0,0,0,0.2387,0.2381,0.2375,0.2375,0.238,0.2374,0.2372,0.2368,0.2357,0.2356,0.2363,0.2362,0.2351,0.2351,0.235,0.2386,0.2346,0.2346,0.2346,0.2389,0.239,0.2392,0,0,0,0,0,0,0.2387,0.2387,0.2375,0.238,0.2379,0.2374,0.2369,0.2368,0.2374,0.236,0.2358,0.2372,0.2351,0.235,0.2363,0.2384,0.2346,0.2346,0.2387,0.2389,0.2391,0.2436,0,0,0,0,0,0,0.2388,0.2386,0.239,0.238,0.2379,0.2383,0.237,0.2368,0.2376,0.2375,0.2367,0.2365,0.2351,0.2363,0.2362,0.2383,0.2346,0.2386,0.2388,0.2391,0.2433,0.2439,0.2444,0,0,0,0,0,0.2388,0.2389,0.239,0.239,0.2382,0.2384,0.2383,0.2378,0.2377,0.2382,0.2381,0.2366,0.2379,0.2364,0.2363,0.2384,0.2384,0.2387,0.239,0.243,0.2438,0.2444,0,0,0,0,0,0,0.2393,0.2388,0.2389,0.2389,0.2393,0.2383,0.2388,0.2387,0.239,0.2393,0.2378,0.2377,0.2398,0.2387,0.2372,0.2406,0.2381,0.2384,0.2412,0.2419,0.2425,0.2427,0.2345,0,0,0,0,0,0.2398,0.2398,0.2397,0.2399,0.2402,0.2399,0.2402,0.2401,0.2401,0.2401,0.2397,0.2399,0.2408,0.241,0.2413,0.2428,0.2431,0.2443,0.2449,0.2454,0.2457,0.2488,0.2497,0.2402,0.2402,0.2402,0,0,0.24,0.24,0.2399,0.2401,0.2402,0.2409,0.24,0.2409,0.2419,0.2401,0.2415,0.242,0.2418,0.2437,0.2446,0.243,0.2485,0.2458,0.2462,0.2462,0.2492,0.2501,0.2509,0.2404,0.2403,0.2403,0,0,0.2403,0.2406,0.2407,0.2414,0.2424,0.2425,0.2433,0.2434,0.2439,0.2456,0.2452,0.2472,0.2476,0.2482,0.2485,0.2527,0.2518,0.2531,0.2558,0.2589,0.2596,0.2603,0.2626,0.2634,0.2531,0.2531,0.2531,0,0.2409,0.2407,0.241,0.2417,0.2424,0.2435,0.2443,0.2453,0.2461,0.2474,0.2468,0.2501,0.2498,0.2529,0.2543,0.254,0.2553,0.2529,0.2596,0.2603,0.2609,0.263,0.2639,0.2533,0.2533,0.2533,0.2532,0,0.2408,0.2416,0.242,0.2431,0.2442,0.2452,0.2468,0.2487,0.25,0.2512,0.2551,0.2554,0.2575,0.2581,0.2572,0.262,0.2614,0.2602,0.2576,0.2621,0.2641,0.2649,0.2537,0.2536,0.2535,0.2534,0,0,0.2391,0.2414,0.2416,0.2423,0.2451,0.2455,0.2489,0.2516,0.2546,0.2566,0.2602,0.2624,0.2637,0.2642,0.2643,0.2665,0.2721,0.2654,0.2655,0.2673,0.279,0.2742,0.2746,0.2724,0.2725,0.2727,0.2787,0,0.2388,0.24,0.2416,0.2435,0.244,0.2472,0.2501,0.2535,0.2569,0.2611,0.2636,0.2671,0.2658,0.2677,0.2701,0.2721,0.2745,0.2706,0.2746,0.2747,0.2695,0.2754,0.2527,0.2559,0.2795,0.2797,0.2798,0,0.2372,0.2385,0.2398,0.2434,0.2441,0.2461,0.2514,0.2546,0.2615,0.2649,0.2698,0.272,0.2769,0.2745,0.2806,0.2784,0.2792,0.28,0.2802,0.2745,0.2714,0.2551,0.2565,0.2812,0.2811,0.2809,0.2809,0,0.2336,0.2368,0.2377,0.2388,0.2434,0.2454,0.2487,0.2555,0.2596,0.268,0.272,0.2781,0.2818,0.2845,0.2864,0.2845,0.2924,0.2897,0.2859,0.2856,0.2663,0.264,0.2936,0.2936,0.2936,0.2936,0.2936,0,0.2313,0.2319,0.2362,0.2364,0.2392,0.2433,0.248,0.2534,0.2618,0.2667,0.2736,0.2783,0.2846,0.2892,0.2896,0.2912,0.2954,0.2878,0.2874,0.2673,0.2651,0.2865,0.2856,0.2938,0.2938,0.2937,0.2937,0,0.2262,0.229,0.2302,0.2352,0.2371,0.2389,0.247,0.2506,0.2597,0.2666,0.2695,0.2807,0.2873,0.2919,0.2976,0.2951,0.2968,0.2957,0.2717,0.2684,0.287,0.2863,0.2927,0.2926,0.2925,0.2924,0.2924,0,0.2232,0.2234,0.2282,0.2293,0.2313,0.2355,0.2386,0.2485,0.2527,0.2665,0.2687,0.2794,0.2845,0.2927,0.291,0.2923,0.2965,0.2709,0.2626,0.2882,0.2873,0.2867,0.2861,0.239,0.2385,0.2381,0.2378,0,0.2181,0.2201,0.2215,0.2241,0.2264,0.2294,0.2345,0.2376,0.2487,0.2549,0.2633,0.2694,0.2784,0.2707,0.2739,0.2708,0.2691,0.2628,0.2962,0.2433,0.2382,0.2371,0.2381,0.2342,0.2345,0.2348,0.235,0.2351,0.2143,0.214,0.2163,0.2177,0.2202,0.221,0.2207,0.2262,0.2311,0.2364,0.2492,0.2495,0.2537,0.2473,0.2401,0.2343,0.2533,0.2403,0.2412,0.2427,0.2359,0.231,0.2243,0.2246,0.2249,0.2251,0.2253,0,0.2084,0.2089,0.2098,0.2102,0.2087,0.2137,0.2157,0.2125,0.2125,0.2195,0.2244,0.2075,0.2037,0.2068,0.1934,0.1947,0.1897,0.1855,0.1762,0.1801,0.1836,0.1734,0.1454,0.1451,0.1448,0.1446,0,0,0.2054,0.2032,0.203,0.1979,0.1985,0.1934,0.1924,0.1888,0.1896,0.185,0.1824,0.1961,0.2028,0.171,0.168,0.1542,0.1652,0.1478,0.2128,0.206,0.209,0.2171,0.2063,0,0,0,0,0]},{"header":{"parameterUnit":"m.s-1","parameterCategory":2,"la1":30.2991,"la2":30.254,"lo1":-89.0895,"lo2":-89.0444,"dy":0.0017,"dx":0.0017,"nx":28,"ny":28,"refTime":"2024-10-05T09:00:00:Z","depth":"2","parameterNumber":3,"parameterNumberName":"V-component_of_CURRENTS"},"data":[0,0,0,0,0,0,0,0,0,0,0,0,0,0,0,0,0,0,0,0,0,0,0,0,0,0,0,0,0,0,0,0,0,0,0,0,0,0,0,0,0,0,0,0,0,0,0,0,0,0,0,0,0,0,0,0,0,0,0.0141,0.014,0,0.0105,0.0104,0.0104,0.0078,0.0078,0.0078,0.0078,0.0028,0.0027,0.0025,0,0,0,0,0,0,0,0,0,0,0,0,0,0.0144,0.0144,0.0141,0.014,0.014,0.0105,0.0104,0.0104,0.0078,0.0078,0.0078,0.0078,0.0028,0.0027,0.0025,0,0,0,0,0,0,0,0,0,0,0,0,0,0.0128,0.0144,0.0141,0.0123,0.0121,0.0105,0.0104,0.0104,0.0078,0.0078,0.0078,0.0078,0.0029,0.0027,0.0025,0.0019,0,0,0.002,0.0019,0,0,0,0,0,0,0,0,0.0129,0.0128,0.0126,0.0124,0.0122,0.0096,0.0087,0.0075,0.0078,0.0094,0.0078,0.0078,0.005,0.0046,0.004,0.0017,0.0015,0.002,0.0019,0.0018,0.0017,0,0,0,0,0,0,0,0.013,0.0129,0.0126,0.0126,0.0123,0.0102,0.01,0.0084,0.0073,0.0093,0.0091,0.0088,0.0049,0.0041,0.0038,0.0014,0.002,0.0018,0.0017,0.0016,-0.0018,-0.0018,0,0,0,0,0,0,0.0138,0.0131,0.0127,0.0125,0.0126,0.0103,0.01,0.0104,0.0074,0.0069,0.0088,0.0087,0.0045,0.004,0.0036,0.0036,0.0018,0.0016,0.0015,-0.0018,-0.0018,-0.0018,0,0,0,0,0,0,0.0139,0.0139,0.0128,0.0127,0.0124,0.0103,0.0108,0.0104,0.0096,0.007,0.0065,0.0085,0.0044,0.0039,0.0027,0.0033,0.0015,0.0014,-0.0018,-0.0018,-0.0018,0.003,0,0,0,0,0,0,0.0139,0.0139,0.0142,0.0128,0.0124,0.0125,0.0108,0.0103,0.0095,0.0093,0.0066,0.0061,0.0044,0.003,0.0025,0.0031,0.0012,-0.0019,-0.0018,-0.0018,0.0028,0.0031,0.0034,0,0,0,0,0,0.0139,0.0149,0.0143,0.0142,0.0131,0.0125,0.0122,0.0105,0.0095,0.0096,0.0078,0.0062,0.0028,0.0029,0.0023,0.0028,-0.0019,-0.0018,-0.0018,0.0026,0.0031,0.0034,0,0,0,0,0,0,0.0149,0.0147,0.014,0.0147,0.0139,0.0121,0.0119,0.0108,0.0094,0.009,0.0065,0.0059,0.0049,0.0032,0.0033,0.0018,0.0001,0.0001,0.0037,0.0041,0.0044,0.006,0.0011,0,0,0,0,0,0.0154,0.0161,0.0152,0.0156,0.0154,0.0136,0.0131,0.0121,0.0107,0.01,0.0081,0.0061,0.0046,0.0039,0.0021,0.0015,-0.0005,0.0014,0.0017,0.002,0.0029,0.0004,0.0006,-0.0017,-0.0017,-0.0017,0,0,0.0157,0.0157,0.016,0.0159,0.0149,0.0157,0.0132,0.0128,0.0133,0.0097,0.0095,0.007,0.0046,0.004,0.0034,0.0027,0.0015,0.0021,0.0024,0.003,0.0004,0.0007,0.0009,-0.0017,-0.0017,-0.0017,0,0,0.0173,0.0169,0.0183,0.0182,0.0175,0.0167,0.0168,0.0153,0.0146,0.0139,0.0115,0.0098,0.0074,0.0062,0.0052,0.0062,0.0031,0.0053,0.0085,0.0061,0.0063,0.0064,0.0038,0.0037,0.0057,0.0057,0.0057,0,0.0176,0.0196,0.0184,0.0198,0.0203,0.0177,0.0194,0.0184,0.0166,0.0166,0.0145,0.0111,0.0087,0.0086,0.0088,0.0071,0.005,0.0074,0.0066,0.0067,0.0068,0.0041,0.0039,0.0059,0.0059,0.0059,0.0058,0,0.0207,0.0221,0.0228,0.0243,0.0244,0.0253,0.0242,0.0238,0.0221,0.0212,0.02,0.0162,0.0146,0.013,0.0112,0.0107,0.0089,0.0072,0.0059,0.0073,0.0043,0.004,0.0063,0.0062,0.0061,0.006,0,0,0.0223,0.0248,0.025,0.0269,0.0271,0.0279,0.0285,0.0291,0.0307,0.027,0.0281,0.0242,0.0218,0.0205,0.0173,0.0148,0.0128,0.0116,0.0114,0.0096,0.0072,0.0063,0.0058,0.0109,0.0109,0.0109,0.0049,0,0.0253,0.0296,0.0297,0.0335,0.0358,0.0343,0.0357,0.0355,0.0347,0.0349,0.0302,0.0298,0.0248,0.024,0.0208,0.0153,0.0123,0.0146,0.0057,0.0054,0.0049,0.0056,0.0087,0.0037,0.0046,0.0045,0.0045,0,0.0287,0.0314,0.0359,0.0395,0.0404,0.0418,0.0443,0.0456,0.0449,0.0441,0.042,0.0383,0.0345,0.0295,0.0207,0.0224,0.0154,0.0102,0.0098,0.0073,0.004,0.0024,0.0031,0.004,0.004,0.004,0.0041,0,0.0318,0.036,0.0401,0.0412,0.0444,0.0458,0.0474,0.0484,0.0514,0.0503,0.0513,0.0456,0.0434,0.034,0.0228,0.0217,0.0124,0.0095,0.0019,0.0017,0.0018,0.0017,0.0028,0.0028,0.0028,0.0028,0.0028,0,0.0357,0.0389,0.0419,0.0443,0.0497,0.0501,0.0557,0.0564,0.0587,0.0632,0.0568,0.0582,0.0444,0.0372,0.0255,0.0135,0.0143,0.0029,0.0004,0.0035,0.0036,0.0019,0.0019,0.0026,0.0026,0.0027,0.0027,0,0.0387,0.0404,0.0458,0.0498,0.0515,0.0556,0.062,0.0666,0.0673,0.0725,0.0724,0.0679,0.059,0.0443,0.0296,0.0185,0.006,0.0011,0.0056,0.0038,-0.0041,-0.0038,-0.0079,-0.008,-0.008,-0.0081,-0.0081,0,0.0409,0.0439,0.0503,0.0542,0.0562,0.0623,0.0672,0.0707,0.0763,0.0792,0.0824,0.0755,0.0727,0.0508,0.0301,0.0099,0.0064,-0.0014,-0.0031,-0.003,-0.0051,-0.0047,-0.0043,-0.0016,-0.0016,-0.0016,-0.0016,0,0.0454,0.0471,0.0517,0.0599,0.0656,0.0732,0.0802,0.086,0.0903,0.0947,0.0992,0.0971,0.0768,0.0584,0.0303,0.0167,0.002,-0.0018,-0.0025,0.001,0.0025,0.0006,0.0008,-0.0015,-0.0015,-0.0015,-0.0015,-0.0015,0.0487,0.0525,0.0584,0.0663,0.0732,0.0825,0.0898,0.0978,0.1074,0.1135,0.1114,0.1082,0.0869,0.0522,0.0284,0.0024,0.0034,-0.0058,-0.0057,-0.0056,-0.0034,-0.0021,-0.0066,-0.0066,-0.0066,-0.0066,-0.0067,0,0.053,0.0573,0.0647,0.0738,0.0819,0.0851,0.0976,0.1049,0.1165,0.1204,0.1236,0.1037,0.0833,0.0569,0.0194,-0.0023,-0.0041,-0.0097,-0.0068,-0.0066,-0.0065,-0.0043,-0.0078,-0.0079,-0.0079,-0.008,0,0,0.0553,0.0624,0.0659,0.0791,0.0859,0.0976,0.1051,0.1157,0.1215,0.1264,0.1241,0.1201,0.09,0.0628,0.034,0.0124,0.0072,0.0079,0.0115,0.0187,0.0189,-0.0011,0.0029,0,0,0,0,0]}],[{"header":{"parameterUnit":"m.s-1","parameterCategory":2,"la1":30.2991,"la2":30.254,"lo1":-89.0895,"lo2":-89.0444,"dy":0.0017,"dx":0.0017,"nx":28,"ny":28,"refTime":"2024-10-05T09:00:00:Z","depth":"4","parameterNumber":2,"parameterNumberName":"U-component_of_CURRENTS"},"data":[0,0,0,0,0,0,0,0,0,0,0,0,0,0,0,0,0,0,0,0,0,0,0,0,0,0,0,0,0,0,0,0,0,0,0,0,0,0,0,0,0,0,0,0,0,0,0,0,0,0,0,0,0,0,0,0,0,0,0.1516,0.1516,0,0.1554,0.1554,0.1554,0.1591,0.1592,0.1593,0.1594,0.1634,0.1634,0.1634,0,0,0,0,0,0,0,0,0,0,0,0,0,0.1462,0.1462,0.1516,0.1516,0.1517,0.1554,0.1554,0.1554,0.1591,0.1592,0.1593,0.1594,0.1633,0.1634,0.1634,0,0,0,0,0,0,0,0,0,0,0,0,0,0.1489,0.1463,0.1516,0.1542,0.1545,0.1554,0.1554,0.1554,0.1591,0.1592,0.1593,0.1594,0.1633,0.1634,0.1634,0.1617,0,0,0.1636,0.1637,0,0,0,0,0,0,0,0,0.1487,0.149,0.1537,0.154,0.1543,0.1571,0.155,0.1576,0.1591,0.1571,0.1594,0.1595,0.1614,0.1616,0.1617,0.1619,0.162,0.1636,0.1637,0.1637,0.1637,0,0,0,0,0,0,0,0.1485,0.1489,0.1528,0.1538,0.1542,0.1547,0.1552,0.1555,0.1584,0.1573,0.1576,0.1584,0.1615,0.1616,0.1618,0.1621,0.1636,0.1637,0.1637,0.1638,0.1714,0.1716,0,0,0,0,0,0,0.1485,0.1487,0.1527,0.153,0.152,0.1548,0.1553,0.1559,0.1584,0.159,0.1583,0.1586,0.1615,0.1618,0.162,0.1691,0.1637,0.1638,0.1638,0.1712,0.1714,0.1716,0,0,0,0,0,0,0.1484,0.1488,0.1526,0.1511,0.1517,0.1548,0.1554,0.1559,0.1596,0.1592,0.1598,0.1618,0.1616,0.1619,0.1656,0.1689,0.1638,0.1638,0.171,0.1713,0.1715,0.1775,0,0,0,0,0,0,0.1482,0.1487,0.1507,0.1511,0.1518,0.1553,0.1554,0.1559,0.1598,0.1602,0.1623,0.1626,0.1617,0.1655,0.1657,0.1689,0.1639,0.1708,0.1712,0.1715,0.1771,0.1779,0.1786,0,0,0,0,0,0.148,0.1496,0.1508,0.1514,0.1539,0.1554,0.1558,0.1582,0.1599,0.1618,0.1638,0.1627,0.1677,0.1657,0.1658,0.1692,0.1707,0.1711,0.1714,0.1767,0.1777,0.1786,0,0,0,0,0,0,0.1483,0.1501,0.1515,0.1537,0.1557,0.1562,0.1587,0.1601,0.1631,0.1648,0.1644,0.1648,0.1694,0.1686,0.1665,0.1725,0.1692,0.1696,0.1732,0.1741,0.1749,0.1751,0.1639,0,0,0,0,0,0.1492,0.1513,0.1528,0.1551,0.1564,0.1583,0.1599,0.1616,0.1635,0.1651,0.1667,0.1686,0.1704,0.1718,0.173,0.1758,0.1756,0.1783,0.1791,0.1797,0.1801,0.183,0.184,0.1729,0.1729,0.1729,0,0,0.1501,0.1515,0.1529,0.1554,0.1573,0.1594,0.1596,0.1631,0.1657,0.1649,0.1701,0.1716,0.1719,0.1755,0.1775,0.1756,0.183,0.1802,0.1808,0.1808,0.1835,0.1845,0.1855,0.1731,0.1731,0.173,0,0,0.1516,0.1542,0.1562,0.1581,0.1618,0.1627,0.1646,0.1673,0.1699,0.1741,0.1747,0.1785,0.181,0.182,0.1825,0.1883,0.1871,0.1894,0.1933,0.196,0.197,0.1978,0.1993,0.2002,0.1896,0.1896,0.1896,0,0.153,0.1552,0.1572,0.1594,0.1616,0.1647,0.1672,0.1697,0.1736,0.1761,0.177,0.1832,0.1838,0.1877,0.1902,0.19,0.1911,0.1895,0.197,0.1978,0.1985,0.1999,0.2008,0.1899,0.1899,0.1898,0.1898,0,0.1546,0.158,0.1595,0.1633,0.1658,0.1688,0.1719,0.1761,0.1799,0.1822,0.1887,0.1903,0.1939,0.1951,0.1944,0.2002,0.1993,0.1977,0.1943,0.2,0.2011,0.2019,0.1904,0.1903,0.1902,0.1901,0,0,0.1536,0.1596,0.1606,0.163,0.1684,0.17,0.1756,0.1803,0.1848,0.1897,0.195,0.1993,0.2017,0.2025,0.2031,0.2056,0.2118,0.2046,0.2045,0.2056,0.2181,0.2042,0.2037,0.212,0.2122,0.2124,0.217,0,0.1548,0.1592,0.1622,0.1673,0.1695,0.1744,0.1788,0.184,0.1892,0.1952,0.199,0.2045,0.204,0.2073,0.21,0.2117,0.2143,0.2107,0.213,0.213,0.1995,0.2043,0.2129,0.2176,0.2178,0.2179,0.218,0,0.1546,0.1579,0.1628,0.1692,0.1709,0.1749,0.1829,0.1875,0.196,0.2005,0.207,0.2102,0.2163,0.2146,0.2207,0.2189,0.2196,0.2199,0.2201,0.2053,0.2005,0.2108,0.2195,0.2194,0.2193,0.2192,0.2191,0,0.151,0.158,0.1621,0.1643,0.172,0.1763,0.1815,0.1899,0.1947,0.2051,0.2096,0.2169,0.2215,0.2244,0.2262,0.2248,0.2312,0.2288,0.2167,0.2157,0.2242,0.2233,0.2328,0.2328,0.2328,0.2328,0.2327,0,0.1488,0.1525,0.1615,0.1635,0.1695,0.1757,0.1832,0.1897,0.1992,0.2041,0.2127,0.2165,0.2245,0.2284,0.229,0.2251,0.2338,0.2179,0.2161,0.2267,0.226,0.2248,0.2238,0.2329,0.2329,0.2329,0.2328,0,0.1434,0.1495,0.1547,0.1643,0.1679,0.1725,0.1836,0.1878,0.1984,0.2051,0.2089,0.2189,0.2234,0.2285,0.2333,0.2268,0.2256,0.2221,0.2339,0.2326,0.2077,0.207,0.2085,0.2081,0.2077,0.2074,0.2071,0,0.1405,0.1429,0.1542,0.1575,0.1626,0.1705,0.1751,0.1867,0.1903,0.2037,0.2047,0.2142,0.2188,0.2142,0.2214,0.2215,0.2187,0.2167,0.2111,0.2072,0.2054,0.2053,0.2051,0.2065,0.2064,0.2063,0.2062,0,0.1348,0.1406,0.145,0.1521,0.1579,0.1628,0.1702,0.1717,0.1832,0.1945,0.1954,0.1975,0.2018,0.2048,0.2067,0.2063,0.2172,0.2127,0.2134,0.2081,0.2047,0.2033,0.2036,0.2049,0.2051,0.2052,0.2053,0,0.1313,0.1329,0.1396,0.1444,0.1511,0.152,0.1573,0.1601,0.1654,0.1789,0.179,0.1887,0.1991,0.1969,0.1987,0.1975,0.194,0.1868,0.1888,0.1904,0.1822,0.1752,0.165,0,0,0,0,0,0.1264,0.1268,0.1308,0.1341,0.1399,0.1439,0.152,0.1569,0.1676,0.1634,0.1706,0.1734,0.1755,0.1813,0.1763,0.1914,0.1955,0.1848,0.1885,0.1975,0.1991,0.1911,0,0,0,0,0,0,0.123,0.1267,0.1272,0.1243,0.1247,0.129,0.1339,0.1413,0.1394,0.1513,0.1534,0.163,0.168,0.1764,0.173,0.1747,0.1733,0.1919,0.1914,0.1966,0.198,0.1993,0.1916,0,0,0,0,0]},{"header":{"parameterUnit":"m.s-1","parameterCategory":2,"la1":30.2991,"la2":30.254,"lo1":-89.0895,"lo2":-89.0444,"dy":0.0017,"dx":0.0017,"nx":28,"ny":28,"refTime":"2024-10-05T09:00:00:Z","depth":"4","parameterNumber":3,"parameterNumberName":"V-component_of_CURRENTS"},"data":[0,0,0,0,0,0,0,0,0,0,0,0,0,0,0,0,0,0,0,0,0,0,0,0,0,0,0,0,0,0,0,0,0,0,0,0,0,0,0,0,0,0,0,0,0,0,0,0,0,0,0,0,0,0,0,0,0,0,0.0208,0.0207,0,0.0189,0.0188,0.0188,0.018,0.018,0.018,0.018,0.0162,0.0162,0.0161,0,0,0,0,0,0,0,0,0,0,0,0,0,0.0206,0.0206,0.0208,0.0207,0.0207,0.0189,0.0188,0.0188,0.018,0.018,0.018,0.018,0.0162,0.0162,0.0161,0,0,0,0,0,0,0,0,0,0,0,0,0,0.0199,0.0207,0.0208,0.0201,0.02,0.0189,0.0188,0.0188,0.018,0.018,0.018,0.018,0.0163,0.0162,0.0161,0.0157,0,0,0.0159,0.0159,0,0,0,0,0,0,0,0,0.02,0.0199,0.0202,0.0201,0.02,0.0186,0.0181,0.0178,0.018,0.0188,0.018,0.018,0.017,0.0169,0.0166,0.0156,0.0155,0.0159,0.0158,0.0158,0.0158,0,0,0,0,0,0,0,0.02,0.02,0.02,0.0202,0.02,0.0188,0.0187,0.0181,0.0179,0.0187,0.0186,0.0184,0.017,0.0166,0.0165,0.0155,0.0159,0.0158,0.0158,0.0158,0.0143,0.0143,0,0,0,0,0,0,0.0204,0.0201,0.0201,0.02,0.02,0.0188,0.0187,0.0191,0.0179,0.0178,0.0184,0.0184,0.0168,0.0166,0.0165,0.0171,0.0158,0.0158,0.0157,0.0143,0.0143,0.0143,0,0,0,0,0,0,0.0204,0.0204,0.0202,0.0199,0.0198,0.0188,0.0192,0.0191,0.019,0.0177,0.0175,0.0186,0.0168,0.0166,0.0164,0.017,0.0157,0.0157,0.0143,0.0143,0.0143,0.0175,0,0,0,0,0,0,0.0204,0.0205,0.021,0.02,0.0198,0.0201,0.0192,0.019,0.0188,0.0188,0.0178,0.0176,0.0167,0.0165,0.0163,0.0168,0.0156,0.0143,0.0143,0.0143,0.0174,0.0176,0.0178,0,0,0,0,0,0.0204,0.0212,0.021,0.021,0.0206,0.0201,0.0199,0.0192,0.0189,0.0191,0.0185,0.0176,0.0164,0.0165,0.0163,0.0168,0.0143,0.0143,0.0143,0.0173,0.0176,0.0178,0,0,0,0,0,0,0.0213,0.0212,0.021,0.0217,0.0211,0.02,0.0201,0.0195,0.0191,0.0192,0.0179,0.0177,0.0177,0.0167,0.0168,0.0162,0.0151,0.0151,0.0175,0.0177,0.0179,0.0188,0.0155,0,0,0,0,0,0.0218,0.0225,0.0218,0.0224,0.0223,0.0212,0.021,0.0205,0.0199,0.0197,0.019,0.0181,0.0175,0.0172,0.0164,0.0164,0.0145,0.0164,0.0166,0.0168,0.0172,0.0147,0.0147,0.0144,0.0144,0.0144,0,0,0.0222,0.0222,0.0226,0.0226,0.0221,0.0226,0.0211,0.021,0.0215,0.0196,0.0201,0.0189,0.0176,0.0175,0.0174,0.0169,0.0158,0.0168,0.017,0.0173,0.0147,0.0147,0.0148,0.0144,0.0144,0.0144,0,0,0.0234,0.0236,0.0245,0.0245,0.0241,0.0237,0.0238,0.023,0.0228,0.0228,0.0215,0.0207,0.0198,0.019,0.0184,0.0192,0.017,0.0189,0.0208,0.0183,0.0184,0.0183,0.0158,0.0156,0.0191,0.0191,0.0191,0,0.0239,0.0253,0.0246,0.0255,0.026,0.0245,0.0256,0.0251,0.0243,0.0245,0.0234,0.0218,0.0205,0.0205,0.0207,0.0198,0.018,0.0201,0.0187,0.0186,0.0185,0.016,0.0156,0.0192,0.0192,0.0192,0.0192,0,0.0258,0.027,0.0276,0.0286,0.0289,0.0296,0.029,0.029,0.0283,0.0279,0.0274,0.0251,0.0243,0.0233,0.0224,0.0216,0.0203,0.0192,0.0182,0.0188,0.016,0.0156,0.0194,0.0194,0.0193,0.0193,0,0,0.0268,0.0287,0.029,0.0304,0.0308,0.0314,0.0321,0.0326,0.034,0.0318,0.0325,0.0303,0.0288,0.0281,0.0261,0.0237,0.0213,0.0217,0.0214,0.0195,0.0158,0.0149,0.0143,0.02,0.02,0.0199,0.0139,0,0.0286,0.0315,0.0318,0.0347,0.0362,0.0357,0.0369,0.0371,0.0369,0.0372,0.0338,0.034,0.0308,0.0306,0.0275,0.0234,0.0205,0.023,0.0152,0.015,0.0144,0.0139,0.0198,0.0136,0.0135,0.0135,0.0134,0,0.0304,0.0324,0.0356,0.0386,0.0393,0.0408,0.0431,0.0443,0.044,0.0437,0.0422,0.0398,0.0366,0.0334,0.0257,0.0276,0.0221,0.0179,0.0175,0.0154,0.0133,0.0128,0.0127,0.0127,0.0128,0.0128,0.0129,0,0.0319,0.0351,0.0382,0.0392,0.042,0.0436,0.0453,0.0465,0.049,0.0483,0.0492,0.0445,0.0429,0.0351,0.0265,0.0262,0.0173,0.0157,0.0092,0.009,0.0103,0.0103,0.0094,0.0094,0.0094,0.0094,0.0094,0,0.0336,0.0362,0.0394,0.0412,0.0457,0.0466,0.0514,0.0523,0.0545,0.0577,0.0533,0.0537,0.0433,0.037,0.0279,0.0177,0.0181,0.0094,0.0074,0.0117,0.012,0.0099,0.0101,0.0092,0.0092,0.0093,0.0093,0,0.0346,0.0365,0.0407,0.0447,0.0467,0.0501,0.0563,0.0599,0.0612,0.0648,0.0648,0.0609,0.0529,0.0415,0.029,0.0206,0.0102,0.0061,0.0118,0.0102,0.003,0.0034,-0.0017,-0.0017,-0.0018,-0.0019,-0.0019,0,0.0352,0.0375,0.0437,0.0472,0.0494,0.055,0.0594,0.063,0.0671,0.0692,0.0709,0.065,0.0602,0.0426,0.03,0.012,0.009,0.0028,0.0022,0.0033,0.0019,0.0024,0.0028,-0.002,-0.002,-0.0021,-0.0021,0,0.0368,0.0392,0.0429,0.0503,0.0556,0.062,0.0682,0.0716,0.0755,0.0763,0.0759,0.0669,0.0577,0.0435,0.0294,0.0165,0.0064,0.002,0.002,0.0014,0.0028,0.0016,0.0021,-0.0023,-0.0023,-0.0023,-0.0022,0,0.0384,0.0412,0.0467,0.0532,0.0601,0.0669,0.0702,0.0747,0.0786,0.08,0.0797,0.0697,0.0642,0.0458,0.0331,0.0201,0.0161,0.0105,0.01,0.0101,0.0149,0.0184,0.0165,0,0,0,0,0,0.0399,0.0434,0.0494,0.0565,0.0635,0.068,0.0753,0.078,0.0811,0.0812,0.0807,0.0719,0.0541,0.0476,0.0343,0.0306,0.0131,0.0144,0.0062,-0.0036,-0.0034,0.0001,0,0,0,0,0,0,0.0408,0.0464,0.0493,0.0581,0.0635,0.0718,0.0768,0.0793,0.0795,0.0802,0.0718,0.0671,0.0507,0.0616,0.0337,0.0299,0.0224,0.0064,0.0061,-0.0038,-0.0035,-0.0033,0.0003,0,0,0,0,0]}]]